Imperial, NE

2:47 AM MDT on October 17, 2017 (GMT -0600)
Imperial Municipal

Weather History for KIML - April, 2013

Change the Weather History Date:

Tuesday, April 30, 2013

  Actual Average Record
Temperature  
Mean Temperature 54 °F 54 °F  
Max Temperature 68 °F 67 °F 95 °F (1992)
Min Temperature 40 °F 40 °F 14 °F (1903)
Degree Days  
Heating Degree Days 11 12  
Month to date heating degree days 618 498  
Cooling Degree Days 0 0  
Month to date cooling degree days 2 1  
Year to date cooling degree days 2 1  
Growing Degree Days 5 (Base 50)    
Moisture  
Dew Point 33 °F    
Average Humidity 49    
Maximum Humidity 71    
Minimum Humidity 26    
Precipitation  
Precipitation 0.01 in 0.07 in 1.40 in (1911)
Sea Level Pressure  
Sea Level Pressure 29.73 in    
Wind  
Wind Speed 18 mph (NE)    
Max Wind Speed 33 mph    
Max Gust Speed 43 mph    
Visibility 10 miles    
Events Rain , Thunderstorm    
T = Trace of Precipitation, MM = Missing Value Source: NWS Daily Summary

Daily Weather History Graph

Daily Weather History Graph

Search for Another Location

Airport or City:

Trip Planner

Search our weather history database for the weather conditions in past years. The results will help you decide how hot, cold, wet, or windy it might be!

Date:

Astronomy

Apr. 30, 2013 Rise Set
Actual Time 5:46 AM MDT 7:41 PM MDT
Civil Twilight 5:16 AM MDT 8:11 PM MDT
Nautical Twilight 4:40 AM MDT 8:47 PM MDT
Astronomical Twilight 4:02 AM MDT 9:26 PM MDT
Moon 12:06 AM MDT (4/30) 10:17 AM MDT (4/30)
Length of Visible Light 14h 54m
Length of Day
13h 55m
Waning Gibbous, 69% of the Moon is Illuminated
Apr 30
Waning Gibbous
May 2
Last Quarter
May 9
New
May 17
First Quarter
May 24
Full

Hourly Weather History & Observations

Time (MDT) Temp. Windchill Dew Point Humidity Pressure Visibility Wind Dir Wind Speed Gust Speed Precip Events Conditions
12:53 AM 59.0 °F - 36.0 °F 42% 29.46 in 10.0 mi Calm Calm - N/A   Clear
1:53 AM 55.9 °F - 35.1 °F 45% 29.49 in 10.0 mi North 9.2 mph - N/A   Clear
2:53 AM 57.9 °F - 34.0 °F 41% 29.48 in 10.0 mi West 6.9 mph - N/A   Clear
3:53 AM 57.0 °F - 32.0 °F 39% 29.50 in 10.0 mi North 12.7 mph - N/A   Clear
4:53 AM 48.0 °F - 37.0 °F 66% 29.60 in 10.0 mi North 23.0 mph 32.2 mph N/A   Clear
5:53 AM 46.0 °F 37.0 °F 37.0 °F 71% 29.64 in 10.0 mi North 27.6 mph 33.4 mph N/A   Clear
6:53 AM 46.9 °F - 37.0 °F 68% 29.70 in 10.0 mi North 25.3 mph 29.9 mph N/A   Clear
7:53 AM 46.9 °F - 36.0 °F 66% 29.74 in 10.0 mi North 17.3 mph 26.5 mph N/A   Clear
8:53 AM 50.0 °F - 35.1 °F 57% 29.75 in 10.0 mi NE 17.3 mph 25.3 mph N/A   Clear
9:53 AM 55.9 °F - 35.1 °F 45% 29.75 in 10.0 mi NE 21.9 mph 26.5 mph N/A   Clear
10:53 AM 60.1 °F - 35.1 °F 39% 29.74 in 10.0 mi NE 18.4 mph 24.2 mph N/A   Clear
11:53 AM 64.0 °F - 34.0 °F 33% 29.73 in 10.0 mi ENE 15.0 mph 20.7 mph N/A   Clear
12:53 PM 66.0 °F - 34.0 °F 30% 29.73 in 10.0 mi NE 10.4 mph 18.4 mph N/A   Clear
1:53 PM 66.9 °F - 34.0 °F 30% 29.73 in 10.0 mi NE 11.5 mph 17.3 mph N/A   Clear
2:53 PM 66.9 °F - 34.0 °F 30% 29.71 in 10.0 mi ENE 12.7 mph 26.5 mph N/A   Clear
3:53 PM 66.9 °F - 32.0 °F 27% 29.74 in 10.0 mi ENE 15.0 mph 20.7 mph N/A   Clear
4:53 PM 66.9 °F - 30.9 °F 26% 29.75 in 10.0 mi ENE 18.4 mph - N/A   Clear
5:53 PM 62.6 °F - 28.4 °F 27% 29.79 in 10.0 mi ENE 21.9 mph 26.5 mph N/A   Clear
6:53 PM 61.0 °F - 27.0 °F 27% 29.80 in 10.0 mi ENE 18.4 mph - N/A   Clear
7:53 PM 57.9 °F - 25.0 °F 28% 29.83 in 10.0 mi NE 15.0 mph - N/A   Clear
8:53 PM 55.9 °F - 23.0 °F 28% 29.84 in 10.0 mi NE 19.6 mph 26.5 mph N/A   Partly Cloudy
9:53 PM 48.9 °F - 28.9 °F 46% 29.91 in 10.0 mi NE 28.8 mph 36.8 mph N/A   Overcast
10:53 PM 45.0 °F 36.6 °F 33.1 °F 63% 29.95 in 9.0 mi NNE 21.9 mph 34.5 mph 0.00 in Rain , Thunderstorm Light Thunderstorms and Rain
11:11 PM 44.6 °F 36.9 °F 35.6 °F 71% 29.98 in 10.0 mi NNE 18.4 mph 31.1 mph 0.00 in   Overcast
11:53 PM 42.1 °F 32.3 °F 36.0 °F 79% 29.99 in 10.0 mi NNE 24.2 mph 31.1 mph 0.00 in   Overcast